Weather History for Prague, Czech Republic

Change the Weather History Date:

Monday, November 4, 2013

  Actual Average Record
Temperature  
Mean Temperature 46 °F -  
Max Temperature 53 °F 42 °F 60 °F (1996)
Min Temperature 39 °F 31 °F 21 °F (1997)
Degree Days  
Heating Degree Days 19    
Moisture  
Dew Point 37 °F    
Average Humidity 69    
Maximum Humidity 81    
Minimum Humidity 40    
Precipitation  
Precipitation 0.00 in 0.04 in - ()
Sea Level Pressure  
Sea Level Pressure 29.49 in    
Wind  
Wind Speed 10 mph ()    
Max Wind Speed 16 mph    
Max Gust Speed -    
Visibility 6.2 miles    
Events      
Averages and records for this station are not official NWS values.
T = Trace of Precipitation, MM = Missing Value Source: Averaged Metar Reports

Daily Weather History Graph

Daily Weather History Graph

Search for Another Location

Airport:

Trip Planner

Search our weather history database for the weather conditions in past years. The results will help you decide how hot, cold, wet, or windy it might be!

Date:

Astronomy

Nov. 04, 2013 Rise Set
Actual Time 6:57 AM CET 4:34 PM CET
Civil Twilight 6:23 AM CET 5:08 PM CET
Nautical Twilight 5:45 AM CET 5:47 PM CET
Astronomical Twilight 5:07 AM CET 6:24 PM CET
Moon 7:54 AM CET (11/4) 5:17 PM CET (11/4)
Length of Visible Light 10h 45m
Length of Day
9h 36m
New Moon, 1% of the Moon is Illuminated
Nov 4
New Moon
Nov 10
First Quarter
Nov 17
Full
Nov 25
Last Quarter
Dec 3
New

Hourly Weather History & Observations

Time (CET) Temp. Windchill Dew Point Humidity Pressure Visibility Wind Dir Wind Speed Gust Speed Precip Events Conditions
12:00 AM 42.8 °F 36.2 °F 35.6 °F 76% 29.77 in 6.2 mi SW 12.7 mph - N/A   Partly Cloudy
12:30 AM 42.8 °F 39.3 °F 35.6 °F 76% 29.74 in 6.2 mi South 5.8 mph - N/A   Scattered Clouds
1:00 AM 41 °F - 34 °F 68% 29.79 in 31 mi South 4.5 mph - -   Partly Cloudy
1:00 AM 41.0 °F 36.4 °F 33.8 °F 76% 29.74 in 6.2 mi South 6.9 mph - N/A   Partly Cloudy
1:30 AM 41.0 °F 35.8 °F 35.6 °F 81% 29.74 in 6.2 mi South 8.1 mph - N/A   Partly Cloudy
2:00 AM 41.0 °F 35.8 °F 35.6 °F 81% 29.74 in - South 8.1 mph - N/A   Clear
2:30 AM 41.0 °F 35.2 °F 33.8 °F 76% 29.74 in - South 9.2 mph - N/A   Clear
3:00 AM 39.2 °F 33.0 °F 33.8 °F 81% 29.71 in - South 9.2 mph - N/A   Clear
3:30 AM 41.0 °F 33.5 °F 35.6 °F 81% 29.68 in - SSW 13.8 mph - N/A   Clear
4:00 AM 41.0 °F 33.1 °F 33.8 °F 76% 29.68 in - SSW 15.0 mph - N/A   Clear
4:30 AM 41.0 °F 34.3 °F 33.8 °F 76% 29.68 in - SSW 11.5 mph - N/A   Clear
5:00 AM 41.0 °F 33.5 °F 33.8 °F 76% 29.68 in - South 13.8 mph - N/A   Clear
5:30 AM 41.0 °F 32.8 °F 33.8 °F 76% 29.65 in - South 16.1 mph - N/A   Clear
6:00 AM 41.0 °F 34.3 °F 33.8 °F 76% 29.65 in - South 11.5 mph - N/A   Clear
6:30 AM 41.0 °F 35.2 °F 33.8 °F 76% 29.62 in - South 9.2 mph - N/A   Clear
7:00 AM 40 °F - 34 °F 72% 29.65 in 44 mi SSE 4.5 mph - -   Mostly Cloudy
7:00 AM 41.0 °F 35.8 °F 33.8 °F 76% 29.62 in - SSE 8.1 mph - N/A   Clear
7:30 AM 41.0 °F 34.7 °F 33.8 °F 76% 29.59 in - South 10.4 mph - N/A   Clear
8:00 AM 41.0 °F 33.9 °F 35.6 °F 81% 29.59 in - South 12.7 mph - N/A   Clear
8:30 AM 42.8 °F 36.2 °F 35.6 °F 76% 29.56 in - South 12.7 mph - N/A   Clear
9:00 AM 44.6 °F 38.1 °F 35.6 °F 71% 29.53 in - South 13.8 mph - N/A   Clear
9:30 AM 44.6 °F 37.4 °F 35.6 °F 71% 29.53 in - South 16.1 mph - N/A   Clear
10:00 AM 46.4 °F 40.1 °F 35.6 °F 66% 29.50 in - South 15.0 mph - N/A   Clear
10:30 AM 48.2 °F - 35.6 °F 62% 29.50 in - South 11.5 mph - N/A   Clear
11:00 AM 48.2 °F - 35.6 °F 62% 29.47 in - South 15.0 mph - N/A   Clear
11:30 AM 48.2 °F - 35.6 °F 62% 29.44 in - South 16.1 mph - N/A   Clear
12:00 PM 51.8 °F - 35.6 °F 54% 29.42 in - South 16.1 mph - N/A   Clear
12:30 PM 53.6 °F - 35.6 °F 51% 29.39 in - South 16.1 mph - N/A   Clear
1:00 PM 52 °F - 35 °F 40% 29.41 in 47 mi South 11.2 mph - -   Scattered Clouds
1:00 PM 51.8 °F - 35.6 °F 54% 29.39 in - South 13.8 mph - N/A   Clear
1:30 PM 51.8 °F - 35.6 °F 54% 29.39 in - South 16.1 mph - N/A   Clear
2:00 PM 51.8 °F - 35.6 °F 54% 29.36 in - South 16.1 mph - N/A   Clear
2:30 PM 51.8 °F - 37.4 °F 58% 29.36 in - South 13.8 mph - N/A   Clear
3:00 PM 51.8 °F - 39.2 °F 62% 29.36 in - South 13.8 mph - N/A   Clear
3:30 PM 51.8 °F - 39.2 °F 62% 29.33 in - SSE 10.4 mph - N/A   Clear
4:00 PM 50.0 °F - 39.2 °F 66% 29.33 in 6.2 mi South 13.8 mph - N/A   Scattered Clouds
4:30 PM 50.0 °F - 37.4 °F 62% 29.33 in 6.2 mi South 9.2 mph - N/A   Partly Cloudy
5:00 PM 50.0 °F - 39.2 °F 66% 29.33 in 6.2 mi South 9.2 mph - N/A   Scattered Clouds
5:30 PM 50.0 °F - 39.2 °F 66% 29.33 in 6.2 mi South 11.5 mph - N/A   Scattered Clouds
6:00 PM 48.2 °F - 39.2 °F 71% 29.33 in 6.2 mi South 10.4 mph - N/A   Partly Cloudy
6:30 PM 48.2 °F - 39.2 °F 71% 29.30 in - SSE 6.9 mph - N/A   Clear
7:00 PM 49 °F - 40 °F 62% 29.33 in 37 mi SSE 6.7 mph - -   Mostly Cloudy
7:00 PM 48.2 °F - 39.2 °F 71% 29.30 in - SSE 10.4 mph - N/A   Clear
7:30 PM 48.2 °F - 41.0 °F 76% 29.30 in - South 11.5 mph - N/A   Clear
8:00 PM 48.2 °F - 41.0 °F 76% 29.33 in - South 9.2 mph - N/A   Clear
8:30 PM 48.2 °F - 41.0 °F 76% 29.33 in - South 11.5 mph - N/A   Clear
9:00 PM 50.0 °F - 41.0 °F 71% 29.33 in - South 9.2 mph - N/A   Clear
9:30 PM 48.2 °F - 39.2 °F 71% 29.30 in - South 10.4 mph - N/A   Clear
10:00 PM 48.2 °F - 39.2 °F 71% 29.33 in 6.2 mi South 8.1 mph - N/A   Partly Cloudy
10:30 PM 50.0 °F - 41.0 °F 71% 29.33 in 6.2 mi South 8.1 mph - N/A   Mostly Cloudy
11:00 PM 50.0 °F - 41.0 °F 71% 29.33 in 6.2 mi SSW 9.2 mph - N/A   Scattered Clouds
11:30 PM 50.0 °F - 41.0 °F 71% 29.33 in 6.2 mi SSW 11.5 mph - N/A   Scattered Clouds